Boulder Muni, Boulder, CO, CO

8:55 PM MDT on April 24, 2017 (GMT -0600)
Boulder Muni, Boulder, CO

Weather History for KBDU - January, 2014

Change the Weather History Date:

Friday, January 24, 2014

  Actual Average Record
Temperature  
Mean Temperature 38 °F -  
Max Temperature 59 °F - 59 °F (2014)
Min Temperature 17 °F - 17 °F (2014)
Degree Days  
Heating Degree Days 27    
Month to date heating degree days  
Cooling Degree Days 0    
Month to date cooling degree days  
Moisture  
Dew Point 10 °F    
Average Humidity 30    
Maximum Humidity 86    
Minimum Humidity 14    
Precipitation  
Precipitation 0.00 in - 0.00 in (2017)
Sea Level Pressure  
Sea Level Pressure 30.17 in    
Wind  
Wind Speed 5 mph (West)    
Max Wind Speed 22 mph    
Max Gust Speed 29 mph    
Visibility 10 miles    
Events      
T = Trace of Precipitation, MM = Missing Value Source: NWS Daily Summary

Daily Weather History Graph

Daily Weather History Graph

Search for Another Location

Airport or City:

Trip Planner

Search our weather history database for the weather conditions in past years. The results will help you decide how hot, cold, wet, or windy it might be!

Date:

Astronomy

Jan. 24, 2014 Rise Set
Actual Time 7:16 AM MST 5:10 PM MST
Civil Twilight 6:46 AM MST 5:39 PM MST
Nautical Twilight 6:13 AM MST 6:12 PM MST
Astronomical Twilight 5:41 AM MST 6:44 PM MST
Moon 12:46 AM MST (1/24) 11:30 AM MST (1/24)
Length of Visible Light 10h 52m
Length of Day
9h 54m
Last Quarter, 44% of the Moon is Illuminated
Jan 24
Last Quarter
Jan 30
New
Feb 6
First Quarter
Feb 14
Full
Feb 22
Last Quarter

Hourly Weather History & Observations

Time (MST) Temp. Windchill Dew Point Humidity Pressure Visibility Wind Dir Wind Speed Gust Speed Precip Events Conditions
12:16 AM 17.6 °F - 14.0 °F 86% 30.24 in 10.0 mi Calm Calm - N/A   Clear
12:36 AM 17.6 °F - 14.0 °F 86% 30.24 in 10.0 mi Calm Calm - N/A   Clear
12:56 AM 17.6 °F - 12.2 °F 79% 30.23 in 10.0 mi Calm Calm - N/A   Clear
1:16 AM 17.6 °F - 14.0 °F 86% 30.22 in 10.0 mi Calm Calm - N/A   Clear
1:36 AM 19.4 °F - 14.0 °F 80% 30.21 in 10.0 mi Calm Calm - N/A   Clear
1:56 AM 19.4 °F - 14.0 °F 80% 30.21 in 10.0 mi Calm Calm - N/A   Clear
2:16 AM 19.4 °F - 14.0 °F 80% 30.21 in 10.0 mi Calm Calm - N/A   Clear
2:36 AM 30.2 °F - 5.0 °F 34% 30.21 in 10.0 mi Calm Calm - N/A   Clear
2:56 AM 26.6 °F 22.6 °F 8.6 °F 47% 30.20 in 10.0 mi SSW 3.5 mph - N/A   Clear
3:16 AM 28.4 °F 23.3 °F 5.0 °F 37% 30.20 in 10.0 mi West 4.6 mph - N/A   Clear
3:36 AM 30.2 °F 25.4 °F 5.0 °F 34% 30.20 in 10.0 mi West 4.6 mph - N/A   Clear
3:56 AM 30.2 °F - 6.8 °F 37% 30.20 in 10.0 mi Calm Calm - N/A   Clear
4:16 AM 32.0 °F 27.5 °F 3.2 °F 30% 30.19 in 10.0 mi WSW 4.6 mph - N/A   Clear
4:36 AM 28.4 °F 24.6 °F 8.6 °F 43% 30.18 in 10.0 mi West 3.5 mph - N/A   Clear
4:56 AM 28.4 °F - 5.0 °F 37% 30.19 in 10.0 mi Calm Calm - N/A   Clear
5:16 AM 35.6 °F 30.7 °F -0.4 °F 22% 30.20 in 10.0 mi WSW 5.8 mph - N/A   Clear
5:36 AM 32.0 °F 25.6 °F 3.2 °F 30% 30.20 in 10.0 mi West 6.9 mph - N/A   Clear
5:56 AM 32.0 °F 25.6 °F 3.2 °F 30% 30.21 in 10.0 mi West 6.9 mph - N/A   Clear
6:16 AM 35.6 °F - -0.4 °F 22% 30.21 in 10.0 mi Calm Calm - N/A   Clear
6:36 AM 39.2 °F - -4.0 °F 16% 30.21 in 10.0 mi Calm Calm - N/A   Clear
6:56 AM 41.0 °F 35.8 °F -5.8 °F 14% 30.22 in 10.0 mi SW 8.1 mph 18.4 mph N/A   Clear
7:16 AM 41.0 °F - -4.0 °F 15% 30.23 in 10.0 mi Calm Calm - N/A   Clear
7:36 AM 35.6 °F 30.7 °F -0.4 °F 22% 30.23 in 10.0 mi NNE 5.8 mph - N/A   Clear
7:56 AM 30.2 °F 26.7 °F 5.0 °F 34% 30.23 in 10.0 mi East 3.5 mph - N/A   Clear
8:16 AM 33.8 °F 30.8 °F 5.0 °F 30% 30.22 in 10.0 mi SSE 3.5 mph - N/A   Clear
8:36 AM 35.6 °F - 8.6 °F 33% 30.21 in 10.0 mi Calm Calm - N/A   Clear
8:56 AM 33.8 °F 30.8 °F 12.2 °F 41% 30.21 in 10.0 mi ENE 3.5 mph - N/A   Clear
9:16 AM 41.0 °F 39.0 °F 10.4 °F 29% 30.21 in 10.0 mi West 3.5 mph - N/A   Clear
9:36 AM 42.8 °F 40.1 °F 8.6 °F 25% 30.21 in 10.0 mi East 4.6 mph - N/A   Clear
9:56 AM 50.0 °F - 5.0 °F 16% 30.20 in 10.0 mi West 18.4 mph 23.0 mph N/A   Clear
10:16 AM 51.8 °F - 8.6 °F 18% 30.20 in 10.0 mi West 11.5 mph 17.3 mph N/A   Clear
10:36 AM 51.8 °F - 8.6 °F 18% 30.20 in 10.0 mi WNW 10.4 mph 19.6 mph N/A   Clear
10:56 AM 53.6 °F - 10.4 °F 18% 30.20 in 10.0 mi West 18.4 mph 23.0 mph N/A   Clear
11:16 AM 53.6 °F - 8.6 °F 16% 30.18 in 10.0 mi WNW 12.7 mph 18.4 mph N/A   Clear
11:36 AM 55.4 °F - 10.4 °F 17% 30.16 in 10.0 mi SE 8.1 mph - N/A   Clear
11:56 AM 55.4 °F - 8.6 °F 15% 30.15 in 10.0 mi South 5.8 mph - N/A   Clear
12:16 PM 55.4 °F - 10.4 °F 17% 30.14 in 10.0 mi SSE 3.5 mph - N/A   Clear
12:36 PM 57.2 °F - 10.4 °F 16% 30.13 in 10.0 mi Calm Calm - N/A   Clear
12:56 PM 57.2 °F - 12.2 °F 17% 30.13 in 10.0 mi WSW 3.5 mph - N/A   Clear
1:16 PM 57.2 °F - 17.6 °F 21% 30.13 in 10.0 mi NNE 4.6 mph - N/A   Clear
1:36 PM 55.4 °F - 30.2 °F 38% 30.12 in 10.0 mi North 4.6 mph - N/A   Clear
1:56 PM 53.6 °F - 32.0 °F 44% 30.11 in 10.0 mi Calm Calm - N/A   Clear
2:16 PM 59.0 °F - 15.8 °F 19% 30.11 in 10.0 mi NNE 4.6 mph - N/A   Clear
2:36 PM 55.4 °F - 28.4 °F 36% 30.11 in 10.0 mi NNW 5.8 mph - N/A   Clear
2:56 PM 57.2 °F - 19.4 °F 23% 30.11 in 10.0 mi Calm Calm - N/A   Clear
3:16 PM 57.2 °F - 26.6 °F 31% 30.12 in 10.0 mi NW 6.9 mph - N/A   Clear
3:36 PM 55.4 °F - 23.0 °F 29% 30.12 in 10.0 mi NNW 3.5 mph - N/A   Clear
3:56 PM 55.4 °F - 14.0 °F 20% 30.12 in 10.0 mi West 13.8 mph 20.7 mph N/A   Clear
4:16 PM 55.4 °F - 12.2 °F 18% 30.12 in 10.0 mi WNW 17.3 mph 23.0 mph N/A   Clear
4:36 PM 53.6 °F - 12.2 °F 19% 30.13 in 10.0 mi West 15.0 mph 18.4 mph N/A   Clear
4:56 PM 51.8 °F - 10.4 °F 19% 30.14 in 10.0 mi West 10.4 mph 19.6 mph N/A   Clear
5:16 PM 51.8 °F - 10.4 °F 19% 30.14 in 10.0 mi West 19.6 mph 26.5 mph N/A   Clear
5:36 PM 51.8 °F - 10.4 °F 19% 30.14 in 10.0 mi West 12.7 mph - N/A   Clear
5:56 PM 50.0 °F - 8.6 °F 19% 30.14 in 10.0 mi West 13.8 mph 20.7 mph N/A   Clear
6:16 PM 50.0 °F - 8.6 °F 19% 30.15 in 10.0 mi West 13.8 mph 18.4 mph N/A   Clear
6:36 PM 50.0 °F - 8.6 °F 19% 30.14 in 10.0 mi West 19.6 mph 25.3 mph N/A   Clear
6:56 PM 50.0 °F - 8.6 °F 19% 30.15 in 10.0 mi WSW 17.3 mph 27.6 mph N/A   Clear
7:16 PM 50.0 °F - 10.4 °F 20% 30.15 in 10.0 mi WSW 21.9 mph 28.8 mph N/A   Clear
7:36 PM 50.0 °F - 8.6 °F 19% 30.14 in 10.0 mi West 19.6 mph 25.3 mph N/A   Clear
7:56 PM 50.0 °F - 8.6 °F 19% 30.14 in 10.0 mi WSW 18.4 mph 25.3 mph N/A   Clear
8:16 PM 50.0 °F - 10.4 °F 20% 30.14 in 10.0 mi West 18.4 mph 25.3 mph N/A   Clear
8:36 PM 50.0 °F - 8.6 °F 19% 30.14 in 10.0 mi West 20.7 mph 24.2 mph N/A   Clear
8:56 PM 50.0 °F - 8.6 °F 19% 30.15 in 10.0 mi WSW 18.4 mph 24.2 mph N/A   Clear
9:16 PM 50.0 °F - 8.6 °F 19% 30.15 in 10.0 mi West 20.7 mph 28.8 mph N/A   Clear
9:36 PM 50.0 °F - 6.8 °F 17% 30.15 in 10.0 mi WSW 17.3 mph 24.2 mph N/A   Clear
9:56 PM 50.0 °F - 8.6 °F 19% 30.16 in 10.0 mi WSW 13.8 mph 23.0 mph N/A   Clear
10:16 PM 50.0 °F - 8.6 °F 19% 30.16 in 10.0 mi WSW 11.5 mph 21.9 mph N/A   Clear
10:36 PM 48.2 °F - 6.8 °F 19% 30.17 in 10.0 mi West 6.9 mph - N/A   Clear
10:56 PM 46.4 °F 41.5 °F 8.6 °F 22% 30.17 in 10.0 mi West 10.4 mph - N/A   Clear
11:16 PM 44.6 °F 40.7 °F 10.4 °F 25% 30.17 in 10.0 mi West 6.9 mph - N/A   Clear
11:36 PM 46.4 °F 43.5 °F 8.6 °F 22% 30.17 in 10.0 mi WSW 5.8 mph - N/A   Clear
11:56 PM 46.4 °F - 8.6 °F 22% 30.18 in 10.0 mi Calm Calm - N/A   Clear